GEFSSGP_con_probscp_036.txt.gz
Probability
0 0 0 0 0 0 0 0 0 0 0 0 0 0 0 0 0 0 0 0 0 0 0 0 0 0 0 0 0 0 0 1 2 3 3 2 1 0 0 0 0 0 0 0 0 0 0 0 0
0 0 0 0 0 0 0 0 0 0 0 0 0 0 0 0 0 0 0 0 0 0 0 0 0 0 0 0 0 0 0 0 1 2 2 2 1 0 0 0 0 0 0 0 0 0 0 0 0
0 0 0 0 0 0 0 0 0 0 0 0 0 0 0 0 0 0 0 0 0 0 0 0 0 0 0 0 0 0 0 0 0 1 1 1 0 0 0 0 0 0 0 0 0 0 0 0 0
0 0 0 0 0 0 0 0 0 0 0 0 0 0 0 0 0 0 0 0 0 0 0 0 0 0 0 0 0 0 0 0 0 0 0 0 0 0 0 0 0 0 0 0 0 0 0 0 0
0 0 0 0 0 0 0 0 0 0 0 0 0 0 0 0 0 0 0 0 0 0 0 0 0 0 0 0 0 0 0 0 0 0 0 0 0 0 0 0 0 0 0 0 0 0 0 0 0
0 0 0 0 0 0 0 0 0 0 0 0 0 0 0 0 0 0 0 0 0 0 0 1 0 0 0 0 1 2 2 1 1 1 1 1 1 1 1 1 1 0 0 0 0 0 0 0 0
0 0 0 0 0 0 0 0 0 0 0 0 0 0 0 0 0 0 0 0 0 0 0 0 1 2 4 6 9 11 10 8 7 6 5 5 4 5 6 7 5 3 2 1 0 0 0 0 0
0 0 0 0 0 0 0 0 0 0 0 0 0 0 2 6 7 7 7 5 2 1 1 0 3 8 12 17 24 28 27 24 21 19 17 14 10 9 10 11 12 9 6 4 1 0 0 0 0
0 0 0 0 0 0 0 0 0 0 0 0 0 1 6 16 22 24 24 20 13 9 7 6 11 17 21 28 41 46 46 44 37 33 33 30 22 16 15 22 28 23 14 8 5 3 1 0 1
0 0 0 0 0 0 0 0 0 1 2 3 3 3 8 18 28 32 35 34 28 22 19 21 25 28 30 38 51 57 60 60 54 48 50 52 47 37 35 47 55 39 21 14 12 10 5 4 6
0 0 0 0 0 0 0 1 2 5 8 12 12 8 8 15 23 32 37 37 35 32 31 33 36 37 40 50 56 58 62 66 66 65 70 76 74 69 67 75 77 60 40 32 32 26 18 14 15
0 0 0 0 0 0 0 2 6 12 17 23 29 28 25 27 36 46 49 46 42 38 35 36 37 39 47 57 57 54 57 62 68 75 82 87 89 88 89 92 90 80 67 60 56 48 36 29 25
0 0 0 0 0 0 1 4 9 15 19 28 41 50 51 53 61 69 68 63 55 46 37 34 34 37 46 54 53 49 51 56 61 70 76 82 88 92 94 96 95 88 81 75 68 57 47 41 37
0 0 0 0 0 0 1 3 7 11 15 24 38 50 56 58 62 67 67 63 57 48 37 30 28 32 37 42 43 41 44 48 51 56 63 70 79 85 88 90 89 86 81 77 69 60 53 46 42
0 0 0 0 0 0 0 1 3 6 10 16 25 33 36 36 36 41 44 44 44 41 36 29 23 24 27 29 29 29 32 34 37 44 50 55 64 71 75 78 79 79 81 82 75 65 56 45 35
0 0 0 0 0 0 0 0 1 3 5 8 12 15 16 14 14 17 22 26 29 32 32 28 21 19 20 21 19 18 18 19 23 30 36 40 45 51 58 67 69 70 73 74 68 60 51 38 28
0 0 0 0 0 0 0 0 0 1 2 3 3 4 5 5 6 7 9 12 16 20 22 22 20 19 19 18 15 12 10 10 13 18 24 27 29 31 40 52 57 58 59 56 49 43 38 28 21
0 0 0 0 0 0 0 0 0 0 0 0 0 0 1 1 2 2 2 4 7 10 13 14 16 17 16 14 13 12 11 9 9 10 13 15 14 16 25 35 42 45 45 41 33 27 25 21 16
0 0 0 0 0 0 0 0 0 0 0 0 0 0 0 0 0 0 0 1 3 5 6 7 9 11 11 10 10 12 11 10 7 6 6 5 5 9 17 26 33 37 37 32 25 20 17 14 11
0 0 0 0 0 0 0 0 0 0 0 0 0 0 0 0 0 0 0 0 1 2 3 3 3 4 5 5 6 6 7 7 5 4 3 2 3 7 14 22 29 33 34 29 22 16 11 7 5
0 0 0 0 0 0 0 0 0 0 0 0 0 0 0 0 0 0 0 0 0 0 1 1 0 1 1 1 1 2 3 4 4 3 2 2 3 5 9 14 21 27 30 27 20 13 8 4 2
0 0 0 0 0 0 0 0 0 0 0 0 0 0 0 0 0 0 0 0 0 0 0 0 0 0 0 0 0 0 1 1 2 2 1 1 1 2 3 5 9 14 18 19 16 12 9 5 3
0 0 0 0 0 0 0 1 1 1 0 0 0 0 0 0 0 0 0 0 0 0 0 0 0 0 1 0 0 0 0 0 1 1 0 0 0 0 0 1 2 3 6 9 12 14 11 6 4
0 0 0 0 0 0 0 2 3 2 0 0 0 0 0 0 0 0 0 0 0 0 0 0 0 0 0 0 0 0 0 0 0 0 0 0 0 0 0 0 0 0 1 4 9 13 11 8 6
0 0 0 0 0 0 0 2 5 4 1 0 0 0 0 0 0 0 0 0 0 0 0 0 0 0 0 0 0 0 0 0 0 0 0 0 0 0 0 0 0 0 0 1 4 8 10 9 9
0 0 0 0 0 0 0 2 4 2 0 0 0 0 0 0 0 0 0 0 0 0 0 0 0 0 0 0 0 0 0 0 0 0 0 0 0 0 0 0 0 0 0 0 2 3 6 9 10
0 0 0 0 0 0 0 0 1 0 0 0 0 0 0 0 0 0 0 0 0 0 0 0 0 0 0 0 0 0 0 0 0 0 0 0 0 0 0 0 0 0 0 0 1 1 2 5 8
0 0 0 0 0 0 0 0 0 0 0 0 0 0 0 0 0 0 0 0 0 0 0 0 0 0 0 0 0 0 0 0 0 0 0 0 0 0 0 0 0 0 0 0 0 0 0 2 3
0 0 0 0 0 0 0 0 0 0 0 0 0 0 0 0 0 0 0 0 0 0 0 0 0 0 0 0 0 0 0 0 0 0 0 0 0 0 0 0 0 0 0 0 0 0 0 0 1
0 0 0 0 0 0 0 0 0 0 0 0 0 0 0 0 0 0 0 0 0 0 0 0 0 0 0 0 0 0 0 0 0 0 0 0 0 0 0 0 0 0 0 0 0 0 0 0 0

GEFSSGP_con_probscp_042.txt.gz
Probability
0 0 0 0 1 3 4 2 0 0 0 0 0 0 0 0 0 0 3 19 33 22 6 4 5 5 4 2 1 0 0 0 0 0 0 0 0 0 0 0 0 0 0 0 0 0 0 0 0
0 0 0 0 1 2 2 1 0 0 0 0 0 0 0 0 0 0 4 17 24 15 4 3 4 4 4 3 1 0 0 0 0 0 0 0 0 0 0 0 0 0 0 0 0 0 0 0 0
0 0 0 0 1 1 0 0 0 0 0 0 0 0 0 0 0 1 4 13 16 9 3 3 3 3 3 2 1 0 0 0 0 0 0 0 0 0 0 0 0 0 0 0 0 0 0 0 0
0 0 0 0 0 0 0 0 0 0 0 0 1 1 1 0 0 1 4 10 13 10 6 4 3 3 2 1 0 0 0 0 0 0 1 1 1 1 0 0 0 0 0 1 1 0 0 0 0
0 0 0 0 0 0 0 0 0 0 0 0 2 3 2 1 0 0 2 6 13 18 16 8 4 3 1 0 0 0 0 0 0 0 1 2 2 1 1 0 0 1 2 4 3 2 1 1 1
0 0 0 0 0 0 0 0 0 0 0 0 4 7 5 1 0 0 1 3 14 30 29 13 6 5 3 1 0 0 0 0 1 1 1 1 1 1 2 3 4 7 11 13 12 8 4 3 3
0 0 0 0 0 0 0 0 0 0 1 1 6 10 7 2 1 0 0 1 15 38 38 16 5 5 3 1 1 1 1 2 3 3 2 2 2 2 5 10 15 22 28 30 25 18 14 13 12
0 0 0 0 0 0 0 0 0 2 7 11 17 18 11 3 1 0 0 2 16 36 37 19 8 7 4 7 10 10 9 10 10 9 8 7 6 8 12 19 30 43 50 50 44 38 36 34 32
0 0 0 0 0 0 0 0 0 5 19 30 32 27 15 6 4 4 4 5 15 29 33 26 23 20 14 20 30 27 21 24 25 23 23 22 17 14 20 32 50 66 72 72 68 63 61 56 49
0 0 0 0 0 0 0 1 3 12 32 45 42 33 22 17 17 18 18 17 21 30 35 38 43 43 37 42 53 43 34 42 43 40 46 48 39 29 32 53 74 84 88 87 85 82 78 68 56
0 0 0 0 0 0 0 4 10 23 40 50 50 44 39 39 43 45 45 43 44 47 51 53 60 67 64 66 68 58 52 62 63 58 65 71 64 55 56 72 90 95 95 93 90 88 85 73 60
0 0 0 0 0 0 0 4 14 27 38 49 58 62 64 66 70 75 76 74 73 73 72 72 76 82 82 77 75 72 73 78 78 75 76 81 82 77 77 84 93 95 95 93 88 85 84 75 65
0 0 0 0 0 0 0 3 10 20 30 45 61 74 82 86 89 92 93 93 92 91 88 85 85 87 85 79 76 78 83 85 85 84 83 84 86 86 84 85 88 88 87 85 81 75 74 70 66
0 0 0 0 0 0 0 2 8 17 27 39 53 68 82 90 94 96 96 96 95 93 90 85 82 82 81 79 77 78 82 86 87 87 86 84 83 83 82 80 80 77 73 69 65 60 59 60 59
0 0 0 0 0 0 2 6 13 20 24 27 34 47 62 75 83 85 84 83 81 81 80 77 72 72 75 76 74 74 76 80 84 85 84 81 76 73 74 72 67 63 56 49 45 43 45 47 46
0 0 0 0 0 0 5 14 19 18 16 14 16 24 35 45 53 54 54 57 60 65 71 69 63 63 65 63 60 60 63 69 75 78 76 71 64 62 62 59 54 49 44 36 31 31 33 33 33
0 0 0 0 0 1 8 19 19 14 11 8 7 8 13 18 20 19 21 29 39 49 58 59 55 54 50 44 40 41 46 52 59 65 63 56 50 47 49 46 41 37 34 27 23 23 23 22 22
0 0 1 1 1 2 10 19 16 10 9 6 3 2 3 4 4 3 5 12 20 28 35 38 38 39 33 26 23 24 28 34 40 46 46 41 34 32 34 33 29 26 22 18 15 14 14 14 13
0 0 1 2 2 1 8 15 13 7 6 4 2 1 1 1 1 1 1 3 6 9 13 15 19 22 20 16 14 13 15 18 22 27 29 24 19 18 19 20 20 17 13 10 8 7 6 6 6
0 0 1 2 2 1 4 8 9 5 3 3 2 1 0 0 0 0 0 0 1 2 2 4 10 15 17 15 10 8 9 8 9 14 16 13 9 8 8 11 12 12 9 6 4 3 2 2 2
0 0 0 1 1 0 2 5 7 4 1 1 1 1 0 0 1 1 0 0 0 0 1 5 10 16 19 16 8 5 5 3 3 6 9 8 5 3 3 4 6 8 9 7 5 3 2 1 1
0 0 0 0 0 0 1 5 6 3 0 0 0 0 0 0 2 2 1 0 0 0 3 10 17 21 22 16 7 3 1 1 1 2 4 4 2 2 1 1 3 5 7 8 6 5 3 2 1
0 0 0 0 0 0 1 2 2 1 0 0 0 0 0 0 2 3 2 0 0 1 5 14 21 24 22 15 8 3 1 1 0 1 1 1 0 0 0 0 1 2 3 5 5 5 4 2 1
0 0 0 0 0 0 0 1 1 1 1 1 1 1 0 0 1 2 2 2 2 2 5 11 16 17 15 11 7 4 3 1 0 0 0 0 0 0 0 0 0 0 1 1 2 3 3 2 2
0 0 0 0 1 0 0 1 2 1 1 1 2 1 0 1 1 1 1 3 4 3 4 5 6 7 6 5 4 4 2 1 0 0 0 0 0 0 0 1 1 0 0 0 0 1 1 1 2
0 0 0 0 0 0 2 3 3 1 0 0 1 1 0 1 1 1 1 2 3 2 1 1 1 1 2 2 2 1 1 0 0 0 0 0 0 0 1 2 2 1 0 0 0 0 0 0 1
0 0 0 0 0 0 3 5 3 1 0 0 0 0 0 0 0 0 0 1 1 0 0 0 0 0 0 0 0 0 0 0 0 0 0 0 0 0 1 1 2 2 1 0 0 0 0 0 0
0 0 0 0 0 0 2 3 2 0 0 0 0 0 0 0 0 0 0 0 0 0 0 0 0 0 0 0 0 0 0 0 0 0 0 0 0 0 0 0 1 2 2 1 1 0 0 0 0
0 0 0 0 0 0 0 0 0 0 0 0 0 0 0 0 0 0 0 0 0 0 0 0 0 0 0 0 0 0 0 0 0 0 0 0 0 0 0 0 0 1 1 2 2 1 0 0 0
0 0 0 0 0 0 0 0 0 0 0 0 0 0 0 0 0 0 0 0 0 0 0 0 0 0 0 0 0 0 0 0 0 0 0 0 0 0 0 0 0 0 0 2 2 1 0 0 0

GEFSSGP_con_probscp_048.txt.gz
Probability
0 0 0 0 0 0 0 0 0 0 0 0 0 0 0 0 0 0 0 0 0 0 0 1 2 1 0 0 0 0 0 0 0 0 0 0 0 0 0 0 0 0 0 0 0 0 0 0 0
0 0 0 0 0 0 0 0 0 0 0 0 0 0 0 0 0 0 0 0 0 0 0 1 2 2 1 0 0 0 1 1 0 0 0 0 0 0 0 0 0 0 0 0 0 0 0 0 0
0 0 0 0 0 0 0 0 0 0 0 0 0 0 0 0 0 0 0 1 1 1 0 1 3 4 3 3 3 3 3 3 1 0 0 0 0 0 0 0 0 0 0 0 0 0 0 0 0
0 0 0 0 0 0 0 1 2 3 2 1 0 0 0 0 0 1 1 1 2 1 0 1 3 5 6 8 8 7 6 4 1 0 0 0 0 0 0 0 0 0 0 0 0 0 0 0 0
0 0 0 0 0 0 0 1 6 8 6 3 2 1 0 0 1 3 2 1 1 1 0 1 4 6 8 10 10 8 5 2 0 0 0 0 0 0 0 0 0 0 0 0 0 0 0 0 0
0 0 0 0 0 0 0 4 12 18 17 11 6 4 2 1 2 4 3 1 0 0 0 1 4 6 7 8 8 7 4 2 1 0 0 0 0 0 0 0 0 0 0 1 2 2 2 2 2
0 0 0 0 0 0 1 8 21 31 32 23 14 10 6 4 7 10 10 5 1 0 0 1 2 3 3 5 7 7 6 4 3 1 0 0 1 1 1 1 2 2 2 4 6 8 9 9 9
0 0 0 0 0 0 3 13 29 42 44 37 26 20 16 14 20 27 26 15 5 0 0 0 0 0 1 3 5 6 6 4 3 1 1 2 3 3 3 3 4 5 6 9 14 19 22 23 21
0 0 0 0 0 1 5 15 30 43 52 51 45 38 32 32 41 48 44 32 18 9 5 3 3 2 1 1 2 3 2 2 2 3 4 6 7 7 6 6 6 8 11 16 24 33 39 40 37
0 0 0 0 0 1 7 15 24 40 55 60 59 56 53 56 62 65 62 53 42 30 21 16 13 11 9 7 6 5 3 4 5 6 7 9 11 11 10 9 9 11 16 23 32 43 51 53 53
0 0 0 0 0 2 11 21 28 38 52 60 64 68 70 73 77 78 77 73 67 58 49 41 36 34 29 25 21 17 14 14 15 14 13 13 16 15 13 12 12 16 22 31 39 47 52 56 59
0 0 0 0 1 6 19 34 40 42 48 60 71 76 78 80 83 84 83 80 78 74 68 62 59 55 50 44 38 33 30 29 28 25 24 26 27 23 16 12 11 15 24 34 40 44 46 49 52
0 0 0 0 3 13 30 42 44 43 47 59 70 74 76 79 82 81 76 72 70 68 65 61 58 56 53 49 44 39 38 36 32 32 34 38 37 28 17 10 8 11 21 29 32 33 33 37 39
0 0 0 0 3 16 34 44 40 35 39 49 57 61 64 68 70 66 60 56 53 51 48 44 41 40 38 36 34 31 30 30 29 31 35 37 34 26 17 11 8 8 14 20 22 21 21 23 25
0 0 0 0 1 11 29 39 34 25 25 32 37 40 42 45 47 45 40 37 33 30 28 25 22 20 20 20 19 18 18 19 21 25 27 26 22 19 15 13 11 7 7 11 13 14 14 13 12
0 0 0 0 0 5 18 28 24 18 16 16 16 19 21 22 24 24 23 19 15 12 10 8 7 7 7 9 9 9 9 9 11 15 16 13 12 12 11 10 8 6 4 6 8 9 8 6 6
0 0 0 0 0 3 10 16 14 12 10 6 3 5 7 9 10 10 10 7 4 2 1 1 1 2 2 3 3 3 3 3 4 6 6 5 5 6 5 4 4 3 3 3 4 5 6 5 4
0 0 0 0 0 1 5 8 8 8 8 4 1 1 2 3 3 3 3 2 1 0 0 0 0 0 0 0 0 0 0 1 1 2 2 2 2 2 1 1 1 1 1 1 2 3 5 4 3
0 0 0 0 0 1 3 4 4 5 5 3 1 0 0 0 1 1 1 0 0 0 0 0 0 0 0 0 0 0 0 0 0 1 1 1 0 0 0 0 0 0 0 0 0 1 2 1 1
0 0 0 0 0 1 2 1 1 3 3 2 1 1 0 0 0 0 0 0 0 0 0 0 0 0 0 0 0 0 0 0 0 0 0 0 0 0 0 0 0 0 0 0 0 0 0 0 0
0 0 0 0 0 1 1 1 0 1 1 1 1 1 0 0 0 0 0 0 0 0 0 0 1 0 0 0 0 0 0 0 0 0 0 0 0 0 0 0 0 0 0 0 0 0 0 0 0
0 0 0 0 0 0 0 0 0 0 0 0 0 0 0 0 0 0 0 0 0 0 0 0 0 0 0 0 0 0 0 0 0 0 0 0 0 0 0 0 0 0 0 0 0 0 0 0 0
0 0 0 0 0 0 0 0 0 0 0 0 0 0 0 0 0 0 0 0 0 0 0 0 0 0 0 0 0 0 0 0 0 0 0 0 0 0 0 0 0 0 0 0 0 0 0 0 0
0 0 0 0 0 0 0 0 0 0 0 0 0 0 0 0 0 0 0 0 0 0 0 0 0 0 0 0 0 0 0 0 0 0 0 0 0 0 0 0 0 0 0 0 0 0 0 0 0
0 0 0 0 0 0 0 0 0 0 0 0 0 0 0 0 0 0 0 0 0 0 0 0 0 0 0 0 0 0 0 0 0 0 0 0 0 0 0 0 0 0 0 0 0 0 0 0 0
0 0 0 0 0 0 0 0 0 0 0 0 0 0 0 0 0 0 0 0 0 0 0 0 0 0 0 0 0 0 0 0 0 0 0 0 0 0 0 0 0 0 0 0 0 0 0 0 0
0 0 0 0 0 0 0 0 0 0 0 0 0 0 0 0 0 0 0 0 0 0 0 0 0 0 0 0 0 0 0 0 0 0 0 0 0 0 0 0 0 0 0 0 0 0 0 0 0
0 0 0 0 0 0 0 0 0 0 0 0 0 0 0 0 0 0 0 0 0 0 0 0 0 0 0 0 0 0 0 0 0 0 0 0 0 0 0 0 0 0 0 0 0 0 0 0 0
0 0 0 0 0 0 0 0 0 0 0 0 0 0 0 0 0 0 0 0 0 0 0 0 0 0 0 0 0 0 0 0 0 0 0 0 0 0 0 0 0 0 0 0 0 0 0 0 0
0 0 0 0 0 0 0 0 0 0 0 0 0 0 0 0 0 0 0 0 0 0 0 0 0 0 0 0 0 0 0 0 0 0 0 0 0 0 0 0 0 0 0 0 0 0 0 0 0

GEFSSGP_con_probscp_054.txt.gz
Probability
0 0 0 0 0 0 0 0 0 0 0 0 0 0 1 1 0 0 0 0 0 0 0 0 0 0 1 3 5 4 2 0 0 0 0 0 0 0 0 0 0 0 0 0 0 0 0 0 0
0 0 0 0 0 0 0 0 0 0 0 0 0 0 1 1 0 0 0 0 0 0 0 0 0 0 1 2 4 4 2 0 0 0 0 0 0 0 0 0 0 0 0 0 0 0 0 0 0
0 0 0 0 0 0 0 0 0 0 0 0 0 0 1 1 0 0 0 0 0 0 0 0 0 0 0 2 5 5 2 1 0 0 0 0 0 0 0 0 0 0 0 0 0 0 0 0 0
0 0 0 0 0 0 0 0 0 0 0 0 0 1 1 1 0 0 0 1 1 0 0 0 0 1 1 3 6 6 4 2 0 0 0 0 0 0 0 0 0 0 0 0 0 0 0 0 0
0 0 0 0 0 0 0 0 1 1 1 1 0 1 2 1 0 0 0 1 1 0 0 0 1 3 5 7 8 7 4 2 0 0 0 0 0 0 0 0 0 0 0 0 0 0 0 0 0
0 0 0 0 0 0 0 1 4 4 3 3 1 1 2 1 0 0 0 0 0 0 0 0 2 5 7 8 9 8 5 3 1 1 0 0 0 0 0 0 0 0 0 0 0 0 0 0 0
0 0 0 0 0 0 0 2 5 6 5 3 1 1 2 3 2 0 0 1 1 0 0 0 2 4 6 6 8 9 8 5 3 2 1 0 0 0 0 0 0 0 0 0 0 0 0 0 1
0 0 0 0 0 0 0 1 4 7 7 5 3 2 5 11 12 8 6 5 3 2 1 0 1 3 5 5 6 9 10 8 5 3 2 1 0 0 0 0 0 0 0 0 0 0 0 2 3
0 0 0 0 0 0 0 0 2 8 13 15 15 15 20 27 29 24 18 12 9 6 3 1 1 4 8 8 8 9 10 10 9 6 4 3 2 1 2 2 2 2 1 1 1 1 3 5 7
0 0 0 0 0 0 1 1 3 13 25 29 32 38 44 47 46 41 31 21 14 10 5 3 4 7 10 11 10 10 11 12 10 7 7 7 6 5 6 7 7 5 4 3 3 6 10 12 13
0 0 0 0 1 2 5 7 13 26 36 39 43 53 61 62 59 53 42 28 19 14 9 6 7 8 10 11 11 12 12 12 9 7 9 12 10 10 11 11 9 7 7 6 5 9 15 18 17
0 0 1 3 6 12 18 24 31 39 44 47 51 59 67 68 64 56 44 32 24 21 15 10 9 9 11 11 12 13 12 10 9 8 10 14 13 13 14 13 10 8 8 8 6 8 12 16 17
0 0 2 9 19 30 39 43 44 45 46 49 53 57 61 61 55 45 36 29 26 23 17 10 9 10 11 11 10 10 9 8 7 7 9 12 14 13 15 14 10 8 8 8 6 6 7 11 15
0 0 2 11 25 38 48 48 42 39 40 43 45 44 44 43 37 30 25 21 18 14 10 7 7 7 6 6 5 4 4 3 3 4 6 8 9 10 11 10 8 6 6 6 5 5 6 8 10
0 0 1 5 13 25 35 37 30 26 30 35 36 33 28 25 21 17 14 11 8 5 3 2 2 2 1 1 1 1 1 1 1 1 2 3 3 4 5 5 4 3 3 3 3 4 6 8 8
0 0 0 0 3 9 16 19 16 17 25 31 31 25 20 14 11 8 6 5 3 1 1 1 0 0 0 0 0 0 0 0 0 0 0 1 1 2 1 1 2 2 2 2 2 4 6 6 6
0 0 0 0 1 3 6 8 9 13 21 24 21 17 13 9 6 3 2 2 1 0 0 0 0 0 0 0 0 0 0 0 0 0 0 1 2 2 1 0 1 2 2 2 2 3 4 3 2
0 0 0 0 1 2 5 7 8 10 13 14 11 9 7 5 3 1 0 0 0 0 0 0 0 0 0 0 0 0 0 0 0 0 0 1 1 1 0 0 1 1 1 1 1 2 2 1 1
0 0 0 0 0 1 3 6 6 6 6 6 5 3 2 1 0 0 0 0 0 0 0 0 0 0 0 0 0 0 0 0 0 0 0 0 0 0 0 0 0 0 0 0 0 1 1 1 0
0 0 0 0 0 0 1 3 3 3 3 2 1 1 0 0 0 0 0 0 0 0 0 0 0 0 0 0 0 0 0 0 0 0 0 0 0 0 0 0 0 0 0 0 0 0 0 0 0
0 0 0 0 0 0 0 0 1 1 1 0 0 0 0 0 0 0 0 0 0 0 0 0 0 0 0 0 0 0 0 0 0 0 0 0 0 0 0 0 0 0 0 0 0 0 0 0 0
0 0 0 0 0 0 0 0 0 0 0 0 0 0 0 0 0 0 0 0 0 0 0 0 0 0 0 0 0 0 0 0 0 0 0 0 0 0 0 0 0 0 0 0 0 0 0 0 0
0 0 0 0 0 0 0 0 0 0 0 0 0 0 0 0 0 0 0 0 0 0 0 0 0 0 0 0 0 0 0 0 0 0 0 0 0 0 0 0 0 0 0 0 0 0 0 0 0
0 0 0 0 0 0 0 0 0 0 0 0 0 0 0 0 0 0 0 0 0 0 0 0 0 0 0 0 0 0 0 0 0 0 0 0 0 0 0 0 0 0 0 0 0 0 0 0 0
0 0 0 0 0 0 0 0 0 0 0 0 0 0 0 0 0 0 0 0 0 0 0 0 0 0 0 0 0 0 0 0 0 0 0 0 0 0 0 0 0 0 0 0 0 0 0 0 0
0 0 0 0 0 0 0 0 0 0 0 0 0 0 0 0 0 0 0 0 0 0 0 0 0 0 0 0 0 0 0 0 0 0 0 0 0 0 0 0 0 0 0 0 0 0 0 0 0
0 0 0 0 0 0 0 0 0 0 0 0 0 0 0 0 0 0 0 0 0 0 0 0 0 0 0 0 0 0 0 0 0 0 0 0 0 0 0 0 0 0 0 0 0 0 0 0 0
0 0 0 0 0 0 0 0 0 0 0 0 0 0 0 0 0 0 0 0 0 0 0 0 0 0 0 0 0 0 0 0 0 0 0 0 0 0 0 0 0 0 0 0 0 0 0 0 0
0 0 0 0 0 0 0 0 0 0 0 0 0 0 0 0 0 0 0 0 0 0 0 0 0 0 0 0 0 0 0 0 0 0 0 0 0 0 0 0 0 0 0 0 0 0 0 0 0
0 0 0 0 0 0 0 0 0 0 0 0 0 0 0 0 0 0 0 0 0 0 0 0 0 0 0 0 0 0 0 0 0 0 0 0 0 0 0 0 0 0 0 0 0 0 0 0 0

GEFSSGP_con_probscp_060.txt.gz
Probability
0 0 0 0 0 0 0 0 0 0 0 0 0 0 0 0 0 0 0 0 0 0 0 0 0 0 0 0 0 0 0 0 0 0 0 0 0 0 0 0 0 0 0 0 0 0 0 0 0
0 0 0 0 0 0 0 0 0 0 0 0 0 0 0 0 0 0 0 0 0 0 0 0 0 0 0 0 0 0 0 0 0 0 0 0 0 0 0 0 0 0 0 0 0 0 0 0 0
0 0 0 0 0 0 0 0 0 0 0 0 0 0 0 0 0 0 0 0 0 0 0 0 0 0 0 0 0 0 0 0 0 0 0 0 0 0 0 0 0 0 0 0 0 0 0 0 0
0 0 0 0 0 0 0 0 0 0 0 0 0 0 0 0 0 0 0 0 0 0 0 0 0 0 0 0 0 0 0 0 0 0 0 0 0 0 0 0 0 0 0 0 0 0 0 0 0
0 0 0 0 0 0 0 0 0 0 0 0 0 0 0 0 0 0 0 0 0 0 0 0 0 0 0 0 0 0 0 0 1 1 1 0 0 0 0 0 0 0 0 0 0 0 0 0 0
0 0 0 0 0 0 0 0 0 0 0 0 0 0 1 1 1 0 0 0 0 0 0 0 0 0 0 0 0 1 1 2 3 3 2 1 0 0 0 0 0 0 0 0 0 0 0 0 0
0 0 0 0 0 0 0 1 2 2 1 1 1 1 2 3 3 2 2 1 0 0 0 1 1 0 0 0 2 4 5 6 6 5 4 2 1 1 1 1 0 0 0 0 0 0 0 0 0
0 0 0 0 0 0 2 5 7 7 4 4 4 5 8 10 9 8 6 4 2 0 0 1 1 1 1 2 4 6 7 6 6 4 4 4 3 2 2 2 2 2 1 1 1 0 0 0 0
0 0 0 0 0 0 3 7 9 9 9 11 15 19 22 22 19 16 12 7 3 1 0 1 1 2 2 2 5 7 7 6 6 6 7 7 6 5 6 6 6 5 4 3 1 1 1 1 1
0 0 0 0 0 0 3 7 7 7 12 21 30 37 38 34 28 23 17 10 4 2 1 2 3 3 4 4 8 11 12 13 14 15 15 13 12 10 10 10 9 8 7 4 2 2 3 4 5
0 0 0 0 1 0 2 6 7 10 20 31 41 47 45 40 36 30 22 14 8 5 4 5 6 7 9 12 17 19 20 22 23 25 24 21 20 17 15 16 16 14 13 11 10 8 8 11 14
0 0 0 0 1 0 2 6 11 21 36 45 49 51 46 42 39 34 27 19 12 9 9 9 11 13 18 24 25 22 20 20 23 26 25 23 22 20 18 20 21 22 22 21 20 17 15 18 23
0 0 0 1 1 1 2 8 18 32 45 52 55 54 48 43 41 37 29 21 15 13 13 13 14 16 22 27 25 18 14 13 15 18 17 15 15 15 16 18 20 22 24 24 23 20 19 20 23
0 0 0 1 2 1 2 8 21 33 42 49 54 55 48 41 38 34 26 20 16 14 14 13 14 15 17 19 17 12 9 7 6 7 6 7 8 9 11 12 13 16 19 20 19 18 16 17 18
0 0 0 0 1 1 1 7 19 29 37 44 50 52 46 37 31 25 20 16 14 12 10 9 10 11 9 8 7 6 5 4 3 2 2 3 5 7 6 6 6 8 11 13 15 15 13 13 14
0 0 0 0 0 0 1 6 14 22 30 37 42 45 43 34 25 19 16 14 11 9 7 5 4 5 4 2 2 1 1 2 1 1 1 1 3 4 3 2 2 2 4 8 11 12 11 12 12
0 0 0 0 0 0 1 4 9 14 21 28 32 35 35 29 20 16 14 12 9 6 4 2 1 1 1 1 0 0 0 1 1 0 0 0 1 1 1 0 0 0 1 5 8 9 10 10 10
0 0 0 0 0 0 0 2 5 8 14 20 24 26 25 19 14 12 10 8 6 4 2 1 0 0 0 0 0 0 0 0 0 0 0 0 0 0 0 0 0 0 0 2 4 6 6 6 6
0 0 0 0 0 0 0 2 4 7 11 13 14 16 15 12 9 7 6 5 3 2 1 0 0 0 0 0 0 0 0 0 0 0 0 0 0 0 0 0 0 0 0 0 1 3 3 3 2
0 0 0 0 0 0 0 1 3 6 9 9 8 9 9 8 6 4 2 1 1 1 0 0 1 1 1 1 1 1 2 1 1 0 0 0 0 0 0 0 0 0 0 0 0 1 1 1 1
0 0 0 0 0 0 0 1 2 4 6 7 6 6 7 6 3 1 0 0 0 0 0 2 4 5 5 4 3 3 4 3 2 1 0 0 0 0 0 0 0 0 0 0 0 0 0 0 0
0 0 0 0 0 0 0 0 0 1 3 5 5 5 5 4 2 0 0 0 0 0 1 4 6 8 9 9 7 5 5 4 3 2 1 0 0 0 0 0 0 0 0 0 0 0 0 0 0
0 0 0 0 0 0 0 0 0 0 1 2 2 2 2 2 1 0 0 0 0 0 1 4 7 11 13 12 10 7 4 3 3 2 1 0 0 0 0 0 0 0 0 0 0 0 0 0 0
0 0 0 0 0 0 0 0 0 0 0 0 0 0 0 0 0 0 0 0 0 1 3 5 9 12 12 10 9 6 3 2 1 1 0 0 0 0 0 0 0 0 0 0 0 0 0 0 0
0 0 0 0 0 0 0 0 0 0 0 0 0 0 0 0 0 0 0 0 1 2 4 7 10 10 7 5 4 2 1 1 0 0 0 0 0 0 0 0 0 0 0 0 0 0 0 0 0
0 0 0 0 0 0 0 0 0 0 0 0 0 0 0 0 0 0 0 0 1 1 2 5 7 5 2 1 1 0 0 0 0 0 0 0 0 0 0 0 0 0 0 0 0 0 0 0 0
0 0 0 0 0 0 0 0 0 0 0 0 0 0 0 0 0 0 0 0 0 0 0 2 3 2 1 0 0 0 0 0 0 0 0 0 0 0 0 0 0 0 0 0 0 0 0 0 0
0 0 0 0 0 0 0 0 0 0 0 0 0 0 0 0 0 0 0 0 0 0 0 0 1 1 0 0 0 0 0 0 0 0 0 0 0 0 0 0 0 0 0 0 0 0 0 0 0
0 0 0 0 0 0 0 0 0 0 0 0 0 0 0 0 0 0 0 0 0 0 0 0 0 0 0 0 0 0 0 0 0 0 0 0 0 0 0 0 0 0 0 0 0 0 0 0 0
0 0 0 0 0 0 0 0 0 0 0 0 0 0 0 0 0 0 0 0 0 0 0 0 0 0 0 0 0 0 0 0 0 0 0 0 0 0 0 0 0 0 0 0 0 0 0 0 0

GEFSSGP_con_probscp_066.txt.gz
Probability
0 0 0 0 0 0 0 0 0 0 0 0 0 0 1 2 1 0 1 3 5 2 0 0 0 0 0 0 0 0 0 0 0 0 0 0 0 0 0 0 0 0 0 0 0 0 0 0 0
0 0 0 0 0 0 0 0 0 0 0 0 0 0 0 1 0 0 0 2 4 2 0 0 0 0 0 0 0 0 0 0 0 0 0 0 0 0 0 0 0 0 0 0 0 0 0 0 0
0 0 0 0 0 0 0 0 0 0 0 0 0 0 0 0 0 0 0 2 4 4 1 0 0 0 0 0 0 0 0 0 0 0 0 0 0 0 0 0 0 0 0 0 0 0 0 0 0
0 0 0 0 0 0 0 0 0 1 1 1 1 0 0 0 0 0 1 3 6 6 3 0 0 0 0 0 0 0 0 0 0 0 0 0 0 0 0 0 0 0 0 0 0 0 0 0 0
0 0 0 0 1 1 1 1 1 2 2 4 5 4 1 0 0 0 1 4 8 9 6 3 2 1 0 0 0 0 0 0 0 0 1 1 1 1 1 0 0 0 0 0 0 0 0 0 0
0 0 0 0 0 1 2 3 4 4 4 7 12 9 3 0 0 0 2 7 12 14 9 5 3 2 1 0 1 1 1 1 1 1 1 2 2 2 1 1 0 0 0 0 0 0 0 0 0
0 0 0 0 0 1 3 4 7 9 9 10 12 12 7 2 0 0 3 11 19 17 11 5 3 2 1 1 3 5 5 4 4 3 2 1 1 1 1 1 1 1 0 1 1 0 0 0 0
0 0 0 0 0 2 5 7 10 15 19 20 20 20 14 6 1 2 7 15 22 19 10 5 3 1 1 2 4 7 8 7 6 4 2 0 0 1 3 4 5 4 2 3 3 2 1 0 0
0 0 0 0 0 3 8 10 12 18 27 36 41 37 24 9 2 3 11 20 25 20 12 8 7 5 4 5 6 8 11 10 7 5 3 2 3 6 9 12 13 10 6 5 6 6 4 2 1
0 0 0 0 0 3 7 10 12 17 27 40 48 42 25 10 4 6 14 22 25 21 16 16 17 15 15 16 15 13 15 15 13 12 9 7 8 11 16 20 21 16 9 6 8 9 8 5 3
0 0 0 0 0 1 3 7 12 18 24 30 32 26 16 9 10 15 21 26 26 23 22 24 29 31 33 32 26 20 21 20 18 17 15 12 12 14 20 25 24 19 12 9 13 17 15 11 10
0 0 0 0 0 1 1 5 13 19 20 19 16 12 10 13 21 32 40 43 42 36 32 34 39 43 47 43 31 24 23 20 16 15 14 12 10 13 19 25 24 20 16 17 22 25 22 19 19
0 0 0 0 1 2 3 6 13 17 15 12 10 10 15 24 38 52 61 66 65 57 48 44 42 41 41 39 31 21 17 14 11 9 9 7 6 9 14 18 19 18 19 21 23 24 22 21 21
0 0 0 0 1 2 4 7 12 17 14 10 10 15 26 39 55 67 74 77 75 69 58 44 33 28 26 25 21 14 9 8 6 6 6 5 4 6 9 12 13 13 14 17 17 15 14 13 14
0 0 0 0 0 1 3 6 12 16 14 12 15 24 37 51 63 71 74 74 70 65 52 34 22 18 17 14 9 5 4 4 4 4 5 4 4 6 7 8 9 8 8 9 10 9 7 5 5
0 0 0 0 0 1 2 7 11 11 11 14 23 34 45 54 61 63 64 62 58 53 40 25 16 14 12 9 4 2 1 1 2 4 4 3 3 4 5 4 4 4 4 4 5 6 4 3 2
0 0 0 0 0 0 2 5 7 6 7 15 29 44 49 50 51 50 48 48 45 39 29 20 14 10 7 6 5 3 2 2 2 3 4 3 1 1 1 1 2 2 2 2 2 3 3 2 3
0 0 0 0 0 0 1 2 2 2 5 15 29 42 45 42 39 36 34 33 30 25 19 14 10 7 5 5 5 5 3 3 2 2 3 2 0 0 0 0 0 1 1 1 1 1 1 2 2
0 0 0 0 0 0 0 0 1 2 6 13 22 30 34 31 28 26 23 20 17 15 12 10 8 6 5 6 6 5 4 3 1 2 2 2 0 0 0 0 0 0 1 1 1 0 0 1 1
0 0 0 0 0 0 0 0 2 4 8 11 15 19 22 22 21 19 16 13 10 8 8 10 11 9 7 8 7 6 4 3 1 3 4 2 1 0 0 0 0 0 0 0 0 0 0 0 0
0 0 0 0 0 0 0 0 2 5 8 8 9 12 14 15 16 14 11 9 6 5 6 11 15 14 11 9 7 5 4 3 2 5 6 3 1 0 0 0 0 0 0 0 0 0 0 0 0
0 0 0 0 0 0 0 0 2 6 9 7 5 7 10 11 10 8 7 5 4 4 7 15 22 21 15 11 7 5 4 3 4 7 7 4 1 0 0 0 0 0 0 0 0 0 0 0 0
0 0 0 0 0 0 0 0 2 5 7 5 3 4 6 6 4 3 3 3 3 3 7 18 29 29 22 14 9 7 5 4 5 7 7 4 1 0 0 0 0 0 0 0 0 0 0 0 0
0 0 0 0 0 0 0 0 1 2 3 3 3 3 2 2 1 1 1 3 4 6 10 22 36 38 28 18 12 8 6 4 4 5 4 2 1 0 0 0 0 0 0 0 0 0 0 0 0
0 0 0 0 0 0 0 0 0 0 0 1 3 2 1 0 0 0 1 4 9 12 16 28 40 39 28 17 11 8 6 4 3 2 1 1 0 0 0 0 0 0 0 0 0 0 0 0 0
0 0 0 0 0 0 0 0 0 0 0 0 1 1 0 0 0 0 2 6 11 15 20 30 38 34 22 12 10 8 5 3 1 1 0 0 0 0 0 0 0 0 0 0 0 0 0 0 0
0 0 0 0 0 0 0 0 0 0 0 0 0 0 0 1 0 0 2 6 10 13 18 27 32 26 14 9 8 6 3 1 0 0 0 0 0 0 0 0 0 0 0 0 0 0 0 0 0
0 0 0 0 0 0 0 0 0 0 0 0 0 0 0 0 0 0 1 5 8 11 14 19 20 15 8 5 5 3 1 0 0 0 0 0 0 0 0 0 0 0 0 0 0 0 0 0 0
0 0 0 0 0 0 0 0 0 0 0 0 0 0 0 0 0 0 1 3 5 8 10 11 9 7 4 2 1 0 0 0 0 0 0 0 0 0 0 0 0 0 0 0 0 0 0 0 0
0 0 0 0 0 0 0 0 0 0 0 0 0 0 0 0 0 0 1 2 4 6 8 7 5 4 3 1 0 0 0 0 0 0 0 0 0 0 0 0 0 0 0 0 0 0 0 0 0